Location: Bletchingley
(51.2333°N, 0.1000°W)
Time: 22:40:43
(UTC+00:00)

Cosmos 1464 Rocket - Pass Details

Date: 18 September 2020
Orbit: 953 x 1000 km, 82.9° (Epoch: 20 October)

Event Time Altitude Azimuth Distance (km) Brightness Sun altitude
Rises 19:43:07 0° 188° (S) 3,617 6.8 -15.5°
Reaches altitude 10° 19:45:36 10° 189° (S) 2,676 6.2 -15.8°
Maximum altitude 19:51:44 88° 281° (W) 966 4.0 -16.7°
Drops below altitude 10° 19:57:57 10° 10° (N) 2,713 6.5 -17.6°
Sets 20:00:28 0° 11° (N) 3,669 7.2 -17.9°
